Theta_e
321 321 322 322 322 322 322 322 322 322 322 322 323 323 323 323 323 323 324 324 324 325 325 326 327 327 327 326 325 325 324 323 324 325 325 325 325 325 326 326 326 326 326 326 326 326 325 325 324 323 321 320 319 318 317 316 315 314 311 310 310 310 310 311 312 313 313 312 312 312 313 314 314 314 314 313 313 314 314 314 314 314 314 314 314 314
319 320 321 321 322 321 321 321 322 322 322 322 322 322 322 322 322 323 323 324 324 324 325 326 326 327 327 326 325 324 323 324 324 325 325 325 325 325 326 326 326 326 326 325 325 324 324 323 322 321 319 318 317 317 316 315 313 311 310 310 310 310 311 312 313 314 314 313 312 312 313 315 315 315 314 314 313 313 314 314 314 314 314 314 314 314
317 317 318 320 320 320 320 320 320 321 321 321 321 321 321 321 322 322 322 323 323 324 324 325 326 326 326 326 325 324 323 324 325 325 325 325 325 326 326 326 326 325 325 325 324 323 322 321 320 319 318 317 316 315 315 313 311 310 309 310 310 311 311 312 313 314 313 313 312 313 314 315 316 316 315 315 314 314 314 314 314 314 314 314 314 313
315 316 316 317 318 319 319 319 319 319 320 320 320 320 321 321 321 322 322 322 322 323 323 324 325 326 325 325 324 323 324 324 325 326 325 325 325 326 326 325 325 325 324 323 322 321 321 320 319 318 317 316 315 314 313 311 309 309 309 309 310 311 312 312 313 314 313 313 313 313 313 314 315 315 315 315 314 314 314 314 313 313 313 313 313 313
315 316 316 316 317 317 317 318 318 318 318 319 319 319 320 320 321 321 321 322 322 322 323 323 324 325 325 324 324 323 324 325 326 326 325 325 326 326 325 325 324 324 323 322 321 320 319 319 318 317 317 316 314 312 310 309 309 309 309 310 310 311 312 312 313 313 313 313 313 313 313 314 314 314 314 314 314 314 313 313 313 313 312 312 312 313
315 316 316 316 316 316 316 316 317 317 317 317 318 318 319 319 320 320 320 320 321 321 322 322 323 324 324 324 324 324 325 326 326 326 325 325 325 325 324 324 323 323 322 321 320 319 318 318 317 316 316 314 312 311 309 309 309 309 309 309 310 311 312 312 312 312 312 312 313 313 313 313 313 313 312 312 312 313 313 312 312 312 312 312 312 313
314 315 315 315 316 315 315 315 316 316 316 316 316 317 318 318 318 319 319 319 320 320 321 321 322 323 323 323 323 324 324 325 326 326 325 325 325 324 323 323 322 322 321 320 319 318 317 317 316 315 314 312 311 309 308 308 309 309 309 310 310 311 312 312 312 312 311 310 311 312 312 312 312 312 312 311 311 311 312 312 312 312 312 312 313 313
313 314 314 314 314 314 314 314 315 315 316 315 315 315 315 315 316 316 317 317 318 319 319 320 320 321 322 322 322 322 322 323 324 324 324 324 324 323 322 322 322 321 320 319 318 317 316 316 315 314 313 311 309 308 308 309 309 309 310 311 312 312 313 313 312 311 310 309 309 310 311 311 312 311 311 311 311 311 311 311 311 312 312 312 313 313
314 313 313 313 313 313 313 313 314 314 315 315 314 314 312 312 312 313 313 314 315 317 318 318 318 319 319 320 320 320 320 321 322 323 323 323 322 322 321 321 321 320 319 318 316 316 315 314 314 312 311 309 308 308 309 309 309 310 310 312 313 313 313 312 312 311 309 308 308 309 310 311 311 311 311 311 311 311 311 311 311 311 311 312 312 312
314 313 313 313 313 313 313 312 313 313 314 314 314 314 312 311 310 309 309 310 312 314 315 317 317 317 317 318 318 318 318 318 319 320 321 322 322 321 321 321 320 319 318 316 315 314 314 313 312 311 310 309 308 309 309 309 309 310 311 312 313 313 312 312 311 310 309 308 308 308 309 310 310 310 311 311 311 311 311 311 311 311 311 311 311 310
314 313 313 312 312 312 312 312 312 312 313 313 313 312 312 311 310 309 308 308 308 310 312 314 315 316 315 315 316 316 316 316 317 318 318 319 320 320 320 320 319 318 316 315 314 314 313 312 311 310 309 308 309 309 309 310 309 309 310 312 312 312 311 311 310 309 309 308 307 308 308 309 309 309 310 310 310 310 311 311 311 311 310 310 309 308
314 313 313 312 311 311 311 311 311 311 311 311 311 310 310 310 310 310 310 308 307 308 309 311 313 315 316 316 315 315 315 315 315 315 316 316 316 317 318 318 317 316 315 314 313 313 312 312 310 309 309 309 309 310 310 310 309 309 310 311 311 311 310 310 310 309 308 308 307 307 307 307 307 308 308 308 308 309 309 310 310 310 310 309 308 308
314 313 313 312 311 310 309 309 309 309 310 310 310 310 309 309 310 311 311 309 308 308 309 309 310 312 315 317 317 315 314 314 315 315 314 314 314 315 316 316 315 315 314 313 312 312 312 311 310 309 309 309 310 310 310 309 309 309 309 310 310 310 310 309 309 308 308 307 307 307 306 306 306 306 306 306 307 307 308 308 309 309 309 309 308 308
314 313 312 311 311 310 309 308 308 308 309 310 311 311 311 310 310 311 311 309 308 308 308 308 308 309 311 314 315 316 315 314 313 313 313 313 314 315 315 315 315 314 314 313 312 311 311 310 310 309 309 309 310 310 309 309 309 309 309 309 309 309 309 308 308 308 307 307 306 306 306 306 306 305 305 305 305 305 306 306 307 307 308 307 307 307
313 312 312 311 310 310 309 309 309 309 310 311 312 312 311 310 310 310 310 308 306 306 306 305 305 306 308 310 312 313 314 314 312 311 311 311 313 314 315 315 314 314 313 313 312 311 310 310 310 310 309 310 310 309 309 309 309 309 309 309 309 309 308 308 307 307 307 306 306 306 306 306 305 305 305 304 304 304 304 305 305 306 306 306 306 305
313 312 312 311 310 310 309 309 309 310 310 311 312 311 310 310 310 311 310 308 306 305 304 303 302 302 303 306 308 310 311 312 312 310 309 309 310 312 313 314 313 312 312 312 311 310 309 309 309 310 310 310 310 310 309 309 309 309 309 309 308 308 307 307 307 306 306 306 306 306 306 305 305 305 304 304 303 303 303 304 304 304 304 304 304 304
313 313 312 312 311 311 309 309 309 310 311 311 311 311 310 310 311 311 310 308 306 305 305 305 304 303 302 302 304 307 309 310 310 310 309 309 309 310 311 312 312 311 310 310 310 310 309 309 309 310 310 310 310 310 310 309 309 309 309 308 308 307 307 306 306 306 306 306 305 305 305 305 305 304 304 304 303 303 303 303 303 303 303 303 303 303
314 313 313 313 312 311 310 309 310 310 311 311 311 311 311 311 311 311 310 308 306 306 307 308 308 308 305 303 302 304 307 308 308 309 308 308 308 309 309 310 311 311 310 309 309 310 309 309 310 310 310 310 310 310 310 309 309 308 308 308 307 307 306 306 306 306 306 305 305 305 305 305 304 304 304 303 303 303 302 302 302 302 302 302 302 302
314 314 314 313 313 312 310 310 310 311 311 311 311 311 311 311 311 311 310 308 308 308 309 310 311 311 310 307 304 305 306 307 308 308 307 306 307 307 307 308 309 310 309 309 309 309 309 310 310 310 310 310 310 310 310 309 309 308 308 308 307 307 306 306 306 306 305 305 305 305 304 304 304 304 303 303 302 302 302 302 302 302 301 301 301 301
315 314 314 314 313 312 311 310 311 311 311 312 311 311 311 311 311 310 309 309 309 309 310 311 312 312 311 308 306 306 307 307 308 308 307 305 305 306 306 307 307 308 308 308 309 309 309 309 309 309 310 310 310 310 310 309 309 308 308 308 307 307 306 306 306 306 305 305 305 304 304 304 304 303 303 302 302 302 301 301 301 301 301 301 300 300
316 315 315 315 314 313 312 311 311 311 312 312 312 311 311 311 311 310 310 309 309 310 311 312 313 312 311 309 307 307 308 307 308 308 307 304 304 304 305 306 306 306 307 307 308 309 309 309 309 309 309 310 310 310 310 309 308 308 308 308 307 307 306 306 306 306 305 305 305 304 304 304 303 303 302 302 301 301 301 301 301 300 300 300 300 299
319 316 315 315 314 314 313 312 311 312 312 312 312 312 312 312 311 311 310 310 310 310 312 313 314 312 311 310 310 309 309 308 308 309 307 304 302 302 305 305 306 306 306 307 307 308 308 308 308 308 309 309 310 310 309 309 308 308 308 308 307 307 307 306 306 305 305 304 304 304 304 303 303 302 302 301 301 301 301 300 300 300 300 300 299 299
321 319 316 315 315 315 314 313 312 312 312 312 312 313 313 313 313 312 312 311 311 311 311 311 310 310 311 311 310 310 309 308 310 310 308 305 302 301 303 304 305 305 305 306 306 307 307 308 308 308 308 309 309 309 309 308 308 308 308 308 307 307 307 306 306 305 305 304 304 303 303 303 302 302 301 301 301 300 300 300 300 300 299 299 299 298
322 321 317 315 315 315 314 313 312 312 312 312 313 313 314 314 314 314 313 313 312 310 308 307 307 307 308 308 307 307 307 307 309 310 309 306 303 301 302 303 303 304 304 304 305 306 307 307 307 308 308 308 309 309 309 308 308 308 308 308 307 307 306 306 306 305 304 304 303 303 302 302 301 301 301 300 300 300 300 300 299 299 299 298 298 298
322 322 319 317 316 316 315 314 313 313 312 313 313 313 313 313 313 313 312 311 309 308 306 306 305 303 302 303 303 303 304 306 308 309 309 306 302 300 301 302 303 302 302 303 304 305 306 306 307 307 308 308 308 309 308 308 308 308 308 308 307 307 306 306 305 304 304 303 303 302 302 301 301 300 300 300 300 300 300 299 299 299 298 298 298 298
323 322 320 318 317 316 316 315 314 314 313 313 313 313 313 312 312 311 310 308 307 306 306 306 304 301 299 300 300 301 302 304 306 308 309 306 301 299 300 301 302 301 300 301 303 304 305 306 306 307 307 308 308 308 308 308 308 308 308 307 307 306 306 305 305 304 303 303 302 302 301 301 300 300 300 300 300 300 300 299 299 298 298 298 298 298
323 322 321 320 318 317 316 316 315 314 314 314 313 313 312 311 310 309 307 306 306 307 308 307 304 301 299 299 300 300 301 303 305 307 308 306 301 298 298 300 300 300 299 299 301 303 304 305 306 306 307 307 307 308 308 308 308 307 307 307 306 306 305 305 304 303 303 303 302 301 301 300 300 300 300 300 300 300 300 299 299 298 298 298 298 298
323 322 322 321 319 318 317 316 316 315 314 314 313 313 312 311 310 308 307 306 307 308 309 307 305 302 300 300 300 300 300 302 304 306 307 306 303 299 298 299 299 299 298 297 298 301 303 304 305 306 306 307 307 307 307 307 307 307 307 306 306 305 304 304 303 303 302 302 302 301 300 300 300 300 300 301 301 300 300 299 299 299 298 298 298 298
322 322 322 320 319 318 317 316 316 315 314 313 313 313 313 312 311 310 308 308 308 309 310 309 306 304 302 300 299 298 299 301 303 305 306 306 302 299 298 298 298 298 297 296 296 298 299 301 303 304 305 306 306 306 306 306 306 306 306 305 305 304 304 303 303 302 302 302 301 300 300 299 299 300 300 301 301 300 300 299 299 298 298 298 298 297
321 321 320 319 318 317 316 316 315 314 313 313 313 313 313 313 313 311 310 309 309 310 310 308 306 304 302 299 298 297 298 299 301 304 306 305 301 298 297 297 297 298 298 297 296 295 295 297 300 302 303 304 305 305 304 304 304 304 304 304 303 303 303 303 302 302 301 301 300 300 299 299 300 300 301 301 301 300 300 299 299 298 298 298 297 297
319 319 318 317 316 316 315 314 314 313 313 312 312 312 313 313 313 312 311 310 311 311 310 308 306 304 302 300 299 299 299 299 300 303 305 305 301 298 297 296 297 298 299 300 299 297 294 294 296 299 301 303 303 304 303 303 303 303 302 302 302 302 302 301 301 301 300 300 300 299 299 300 300 301 301 301 301 300 299 299 298 298 298 298 298 298
318 317 316 315 315 314 313 313 313 312 312 311 311 312 313 313 313 312 311 311 312 312 310 308 306 304 303 304 304 303 302 300 300 302 304 304 301 298 297 297 297 297 300 301 302 301 297 294 293 295 298 301 302 302 302 302 302 302 301 301 301 300 300 300 300 300 299 299 299 299 300 300 301 301 301 301 301 300 299 298 298 298 298 298 298 298
317 316 315 314 314 313 313 312 312 311 311 311 311 312 313 314 314 313 312 313 313 313 311 309 306 304 304 306 306 305 304 301 301 302 304 304 301 298 298 297 297 298 299 301 302 302 299 295 292 292 294 297 299 300 301 301 301 301 301 301 300 300 300 300 300 300 299 299 299 299 300 301 301 302 301 301 300 299 299 298 298 298 298 298 298 298
316 315 314 313 313 312 312 312 311 311 310 311 311 312 313 314 314 313 313 313 314 314 313 311 308 306 305 305 305 304 303 302 301 302 303 304 302 299 298 298 298 298 299 300 300 299 297 294 292 291 291 292 295 297 298 299 299 300 300 300 300 300 300 300 300 300 299 299 299 300 300 301 301 301 301 300 300 299 298 298 298 298 298 298 298 297
315 314 314 313 312 312 312 312 311 311 311 311 312 313 313 314 314 313 313 314 314 314 314 313 311 309 308 307 305 303 301 301 301 302 303 304 303 300 298 298 298 299 299 299 299 297 295 293 292 291 290 290 291 293 295 296 297 298 299 300 300 300 300 300 300 300 299 299 299 300 300 300 301 300 300 300 299 299 298 298 298 297 297 296 296 295
314 313 313 312 312 312 312 311 311 311 311 311 312 312 313 313 313 313 313 314 314 314 313 313 313 313 312 311 308 306 304 303 302 302 303 304 304 302 300 299 299 299 300 299 298 297 295 293 293 292 292 290 289 289 291 293 295 296 297 298 299 299 299 300 300 300 299 299 299 299 300 300 300 300 299 299 298 298 297 297 296 295 294 293 292 292
312 312 311 311 311 311 311 310 310 310 310 310 311 311 312 312 312 312 313 313 312 312 312 312 312 312 312 312 312 311 310 307 305 303 303 304 304 303 301 300 299 300 300 300 298 297 295 294 293 293 293 292 290 289 288 290 292 294 295 296 297 298 298 299 299 299 299 299 299 299 299 299 299 299 299 298 297 296 295 294 293 292 290 289 288 288
310 310 309 309 310 309 309 308 308 308 308 308 308 309 309 309 310 310 310 310 311 311 310 310 310 309 309 310 312 313 313 309 306 304 303 303 304 303 302 300 299 300 300 300 299 297 296 295 294 294 294 293 291 289 288 289 290 291 293 294 295 296 297 297 297 298 298 299 299 299 299 299 299 298 297 296 294 293 291 290 289 288 287 286 286 285
309 308 308 308 308 307 307 306 305 305 306 306 306 306 306 306 307 307 307 307 308 308 309 308 308 307 308 308 309 310 309 308 306 304 303 302 303 303 302 300 299 299 300 300 299 298 297 296 296 295 295 293 290 288 288 289 289 289 290 291 293 294 295 296 296 297 297 298 298 298 298 298 297 296 294 292 290 289 287 286 286 285 285 285 284 284
307 307 306 306 306 306 305 304 303 303 303 303 303 303 303 303 303 303 303 304 304 305 305 306 305 305 305 305 305 305 304 304 303 302 301 301 302 302 301 300 299 299 299 299 298 298 298 297 297 296 295 292 290 288 288 288 288 289 289 289 289 290 292 293 294 295 296 297 297 297 296 295 294 292 290 288 286 286 285 285 285 285 284 284 284 284
306 305 305 304 304 303 303 302 302 302 301 301 301 300 300 300 299 299 299 299 300 301 302 302 301 301 301 301 300 300 300 300 300 300 300 300 300 301 301 300 299 299 299 299 298 298 298 298 297 296 294 292 290 289 288 288 288 289 290 289 288 288 289 290 291 292 293 294 294 294 293 292 290 288 286 285 285 285 285 285 285 285 285 284 284 284
305 303 302 300 300 299 299 299 299 299 299 299 299 298 298 298 298 297 296 296 296 297 298 298 298 297 295 295 295 296 297 297 298 298 299 299 299 300 300 300 299 299 299 299 298 298 298 298 297 295 293 292 291 290 288 288 288 289 290 290 289 287 287 287 288 289 290 290 290 290 289 288 286 285 285 285 285 285 285 285 284 284 284 284 284 284
302 300 298 297 297 297 296 296 296 297 297 297 297 296 297 297 297 297 296 294 294 294 295 296 296 294 292 291 292 293 294 296 297 297 298 299 299 299 300 300 300 299 299 299 298 298 298 297 296 295 293 292 291 290 289 288 288 288 289 290 289 288 286 285 285 286 287 287 287 287 286 285 285 285 285 285 285 285 285 284 284 284 284 284 284 284
297 296 295 294 294 294 295 295 295 295 296 295 295 295 295 296 297 296 296 294 293 293 293 293 293 292 290 289 289 291 292 294 296 297 298 298 299 299 300 300 299 299 300 299 298 297 296 296 295 294 293 293 292 291 289 288 288 288 288 290 290 290 287 286 285 285 285 285 285 285 285 284 284 284 284 284 284 284 284 284 284 284 284 284 284 284
294 293 292 293 293 293 293 294 294 295 295 295 294 294 295 295 296 296 295 294 293 292 292 292 292 291 289 288 288 289 290 292 294 296 297 297 298 299 299 299 299 299 299 299 298 297 296 294 293 293 293 293 292 291 290 289 288 287 287 289 290 291 290 289 287 286 285 284 284 284 284 284 284 284 284 284 284 284 284 284 284 284 284 284 283 283
292 292 292 292 293 293 293 293 294 294 294 294 294 294 294 295 296 296 295 294 293 292 292 293 293 291 289 289 288 288 288 289 291 292 294 295 297 297 298 298 298 298 298 298 298 298 297 295 293 292 292 292 291 290 290 289 288 287 287 287 288 289 288 287 286 285 285 284 284 284 284 284 284 284 284 284 284 283 283 283 283 283 283 283 283 283
292 292 292 292 292 293 293 293 293 293 293 293 293 293 293 294 294 294 294 294 293 292 292 293 292 291 290 289 289 288 288 288 288 289 291 293 294 295 296 296 297 297 297 296 296 296 296 295 295 294 293 291 289 288 288 288 288 287 286 286 287 287 285 284 284 284 284 284 284 284 284 284 284 284 284 284 284 284 284 283 283 283 283 283 283 283
292 292 292 292 292 292 292 292 293 293 292 292 292 292 292 293 293 293 293 293 292 292 292 292 291 290 289 289 289 289 288 288 287 287 288 290 292 293 294 294 294 295 295 294 294 293 293 293 293 294 293 292 289 287 286 287 287 286 286 286 286 285 284 284 284 284 284 284 284 284 284 284 284 284 284 284 284 284 284 284 283 283 283 283 283 283
293 292 292 292 292 292 292 292 292 292 292 292 291 291 292 292 293 293 292 292 292 292 292 291 290 289 289 288 288 288 288 287 287 286 287 288 289 290 291 292 292 292 291 291 291 291 290 290 290 291 292 292 290 288 286 286 285 285 285 285 285 285 284 284 283 283 284 284 284 284 284 284 284 285 285 285 285 285 285 284 284 284 283 283 283 283
292 292 292 292 292 292 292 292 292 292 291 291 291 291 291 291 292 292 292 292 292 292 292 291 290 289 288 288 288 287 287 287 286 286 286 287 288 289 289 290 290 289 289 289 289 288 288 288 288 288 289 290 289 288 286 285 285 285 284 284 284 284 284 284 283 283 284 284 284 284 284 284 285 285 285 285 285 285 285 285 284 284 284 284 284 284
291 291 292 292 292 292 292 292 291 291 291 291 291 291 291 291 291 291 292 292 292 291 291 290 290 289 288 288 287 287 287 287 286 286 286 286 287 288 288 289 289 289 288 288 288 287 287 286 285 285 286 286 287 287 286 285 284 284 284 284 284 284 284 284 284 284 284 284 285 285 285 285 285 285 286 286 285 285 285 284 284 285 284 284 284 284
Wind_Speed
28 32 33 34 35 37 40 43 43 42 41 40 40 39 38 38 38 39 40 40 40 41 40 39 38 37 36 36 37 37 39 40 40 39 37 35 33 32 31 29 27 26 25 25 24 24 24 24 23 22 22 21 20 20 19 17 16 15 13 12 11 10 9 8 6 5 5 4 4 5 6 8 9 10 11 12 12 11 10 9 9 9 10 11 13 13
25 29 32 35 36 37 40 42 43 42 42 41 40 40 38 38 38 38 39 39 40 40 40 39 38 38 37 37 37 38 40 41 40 39 37 35 33 32 31 29 27 26 25 24 24 24 24 23 22 22 21 20 20 19 17 16 15 13 12 12 12 11 10 8 8 7 6 5 5 6 8 11 13 14 13 12 11 10 10 10 10 10 10 11 12 13
22 25 29 34 36 37 38 40 41 42 42 41 41 40 39 38 38 38 38 38 38 39 39 38 38 37 37 37 38 39 40 41 41 39 37 35 33 32 31 29 28 26 25 24 24 24 23 23 22 21 21 20 19 18 16 15 13 13 13 13 13 12 10 10 10 10 9 7 6 7 10 13 16 17 15 13 12 11 11 12 11 10 10 10 10 11
21 22 26 30 33 35 35 37 38 39 39 40 40 39 38 37 37 37 37 37 36 36 36 37 37 37 37 37 38 39 40 41 40 39 37 35 34 33 31 30 28 26 25 25 24 24 24 23 22 22 21 20 18 17 15 14 13 13 14 14 14 13 12 12 12 12 11 9 8 8 10 13 14 15 15 14 13 13 13 13 12 10 9 9 9 10
21 23 25 27 27 28 30 33 35 35 35 36 36 36 36 36 36 35 35 35 35 35 35 35 36 37 37 38 39 39 40 41 40 39 36 35 34 33 32 30 28 26 25 25 25 24 24 23 23 22 21 19 17 16 14 13 13 14 15 15 15 15 14 15 15 14 13 11 11 11 12 13 13 13 13 13 13 14 14 13 11 10 10 10 10 10
21 23 25 25 23 23 25 29 31 32 32 32 33 34 34 35 35 34 34 34 34 35 35 35 36 36 37 38 39 39 40 40 40 38 36 35 34 33 32 30 28 26 26 25 25 25 24 24 23 22 20 18 16 15 14 14 14 15 16 16 17 17 18 18 17 15 14 13 12 12 13 13 13 13 13 13 13 13 13 12 11 10 10 10 11 11
21 22 24 24 24 23 24 27 30 32 32 31 31 32 33 33 33 33 33 34 35 35 36 36 36 36 37 38 39 39 39 39 39 38 36 35 34 33 31 29 28 27 26 26 26 25 24 24 22 21 19 17 16 15 15 15 16 16 17 17 18 20 21 20 19 17 15 13 13 13 13 13 13 13 13 13 13 13 12 11 11 11 11 11 11 11
19 21 24 23 23 23 24 27 30 33 34 33 32 31 31 32 32 33 34 34 35 36 36 36 36 36 37 37 38 37 37 37 37 37 35 34 33 32 30 29 28 27 27 26 26 25 24 23 21 20 18 17 16 16 16 17 17 17 17 18 20 23 23 22 20 18 16 14 13 13 13 13 13 13 13 13 13 13 12 12 12 12 12 12 12 12
21 20 22 23 23 22 23 25 29 33 35 35 35 33 31 31 31 31 32 32 33 35 36 36 36 36 36 36 37 36 35 35 36 36 35 35 33 32 30 29 28 27 27 27 26 25 23 22 21 19 18 17 17 17 18 18 18 18 18 20 23 25 25 23 21 18 16 14 14 14 14 14 13 13 13 13 13 13 14 14 14 15 15 15 15 15
24 22 21 24 26 26 23 23 27 32 34 35 36 35 34 33 31 29 27 28 30 33 35 36 37 36 35 35 35 35 34 34 35 35 35 35 34 33 31 30 29 28 28 27 26 24 23 21 20 19 19 19 18 18 18 19 19 20 20 22 23 24 24 22 20 17 15 15 15 15 15 15 14 14 14 14 14 14 15 16 17 17 18 18 17 16
22 23 23 22 24 26 25 25 27 30 33 33 32 31 33 34 32 29 24 24 27 30 32 34 36 37 37 35 34 34 34 33 33 33 34 34 33 33 32 31 30 29 28 27 25 24 22 21 20 20 20 20 19 19 19 20 20 21 22 23 23 22 21 19 17 15 14 14 15 16 16 16 15 15 15 15 15 15 15 16 16 17 17 18 17 16
20 22 23 22 22 23 23 24 27 29 30 28 23 21 23 29 32 31 27 25 26 29 30 32 35 37 38 37 36 34 33 33 32 32 32 32 32 32 31 30 30 29 28 26 25 23 22 21 21 21 21 20 20 19 20 21 22 23 24 24 23 21 19 17 15 14 14 15 15 16 16 16 16 15 15 15 15 15 15 15 15 15 15 14 14 14
22 22 22 21 21 21 21 21 22 24 26 25 22 19 20 26 30 30 28 28 30 32 33 32 32 34 36 38 38 36 34 33 33 33 32 32 32 32 31 30 29 28 27 26 24 23 22 21 21 22 22 21 20 20 20 22 23 24 25 25 23 21 18 16 15 14 14 15 16 17 17 16 16 15 15 15 14 14 14 14 14 14 13 12 11 10
20 21 20 19 19 20 21 22 22 22 24 26 26 26 27 30 31 29 25 24 27 31 33 32 31 31 34 35 37 37 36 35 33 33 32 32 32 32 31 31 30 29 28 26 25 24 23 22 22 23 23 22 20 20 21 23 24 24 24 24 23 21 19 17 15 15 16 16 17 18 17 17 16 15 14 14 14 14 14 14 14 14 13 12 11 10
19 17 13 13 16 20 23 24 25 26 28 29 29 29 30 31 31 29 24 21 23 27 28 27 27 29 32 33 35 36 37 36 34 32 31 31 32 32 31 31 30 28 27 26 26 25 23 23 24 25 24 23 22 22 22 23 24 24 24 24 23 22 20 18 17 17 17 18 19 19 18 17 16 15 14 14 13 13 13 13 13 13 13 12 12 11
21 18 12 11 15 21 25 26 27 27 29 30 29 28 27 28 29 28 26 24 25 26 24 20 17 17 22 30 34 35 35 35 34 32 31 30 30 30 30 30 29 28 27 26 26 26 25 25 26 27 26 25 24 24 24 24 24 24 23 23 23 22 21 19 19 19 19 20 20 20 19 18 16 15 14 14 13 12 12 12 11 12 12 12 11 11
21 20 17 15 17 22 26 27 28 28 29 29 29 29 30 30 29 29 27 27 26 24 21 18 10 5 9 19 28 34 35 34 33 32 30 30 29 29 29 29 29 29 28 27 27 27 27 27 28 28 28 27 26 26 26 25 24 24 23 23 23 22 22 21 20 20 21 21 21 21 20 18 17 15 14 13 13 12 11 11 11 11 11 11 11 10
21 21 21 18 19 22 26 27 28 29 29 28 29 30 30 31 31 30 29 28 26 23 21 20 14 8 5 9 22 33 36 34 32 30 29 28 29 30 29 29 29 29 29 28 28 28 28 29 30 30 30 29 28 28 28 27 25 24 24 24 24 23 23 22 22 21 22 22 22 21 20 19 17 15 14 13 12 12 11 10 10 10 10 10 10 10
20 23 23 22 22 24 26 28 29 29 28 29 29 29 28 29 30 29 29 29 28 26 24 21 19 17 15 13 23 36 38 36 32 29 26 25 28 30 29 29 29 29 29 29 29 29 29 30 31 31 30 29 29 30 30 28 26 25 24 24 24 24 23 23 22 22 21 21 21 20 20 18 17 15 14 12 12 11 10 10 9 9 9 9 9 9
23 25 27 27 26 25 26 29 32 33 32 32 32 31 28 28 28 28 27 28 29 28 27 24 22 20 20 21 29 38 41 38 33 28 24 23 27 30 30 30 29 29 29 30 30 30 30 31 31 30 29 29 30 31 30 29 27 26 25 25 25 24 24 23 22 22 21 20 20 20 19 18 16 15 13 12 11 10 9 9 8 8 8 8 8 8
27 27 30 31 29 26 27 30 34 36 37 36 34 32 30 29 27 26 27 28 28 27 26 25 25 25 24 25 31 39 44 41 34 27 22 21 24 29 32 31 30 29 29 30 30 30 31 31 31 30 29 29 30 31 31 29 27 26 26 25 25 25 24 23 22 22 21 21 20 20 19 18 16 15 13 12 11 10 9 8 8 8 8 8 8 8
31 30 33 35 34 32 32 34 37 39 40 39 36 32 30 29 28 28 28 28 27 26 26 27 27 28 29 31 35 41 45 43 37 29 22 16 18 25 33 32 30 29 28 29 30 31 31 32 31 30 29 29 30 31 31 29 28 27 26 26 25 25 24 23 22 22 22 21 21 21 20 18 16 15 14 12 11 10 9 9 8 8 8 8 8 7
36 35 35 38 39 39 39 39 41 43 44 43 41 38 36 35 34 33 32 32 31 29 29 29 28 28 28 31 35 40 44 44 40 33 24 14 14 23 32 32 29 27 27 29 30 31 31 31 30 29 28 29 30 31 30 29 28 27 26 26 26 25 24 23 23 23 22 22 22 21 20 18 16 15 14 13 12 11 10 9 9 9 9 8 8 7
39 39 38 40 43 44 43 44 45 45 46 46 45 44 42 41 40 39 39 38 36 34 33 30 27 24 24 27 31 37 42 43 40 33 24 16 16 23 31 32 28 25 25 27 29 30 31 31 30 28 27 28 29 30 30 29 28 27 27 26 26 25 25 24 23 23 23 23 22 21 20 18 17 16 15 13 12 11 10 10 10 9 9 8 8 7
40 40 40 44 47 48 47 47 49 50 50 48 46 43 40 38 37 36 36 36 35 33 32 28 23 19 19 23 27 32 38 41 39 33 25 17 16 22 31 32 28 24 23 25 28 29 30 30 29 28 27 28 29 30 30 29 28 28 27 26 26 26 25 25 25 24 24 23 22 21 19 18 17 16 15 14 13 12 11 10 10 10 9 8 8 7
44 43 43 47 50 51 51 52 54 55 55 52 48 43 38 35 33 31 30 30 31 31 28 21 15 13 16 19 21 26 34 38 38 35 28 19 17 20 28 30 28 25 23 24 25 26 28 28 28 28 28 29 30 30 30 30 29 28 27 27 27 27 27 26 26 25 24 23 22 21 20 19 18 16 15 14 13 12 12 11 11 10 9 8 7 6
49 47 45 48 51 54 54 54 55 57 59 56 53 48 43 39 35 30 28 29 31 31 25 14 8 9 12 14 16 22 31 36 37 34 30 24 19 18 24 28 28 25 24 23 23 24 26 27 28 28 29 31 32 32 32 30 29 29 28 28 28 28 28 28 27 26 25 23 22 21 20 19 18 17 16 15 13 13 12 12 11 10 9 8 7 6
52 50 46 48 52 55 55 55 55 57 58 58 56 53 49 44 36 29 27 31 34 31 24 14 9 7 7 10 14 22 30 35 36 34 31 26 19 17 24 28 28 27 25 23 22 24 25 26 28 29 30 32 33 34 33 32 31 30 30 30 30 30 30 29 27 26 25 24 23 22 21 20 19 18 16 15 14 14 13 13 11 10 8 7 6 5
52 50 47 48 51 54 56 55 55 56 57 56 56 55 53 48 41 35 34 37 35 29 23 18 15 11 9 11 15 19 26 31 35 36 33 26 19 18 27 29 29 28 27 22 19 19 20 24 26 28 30 31 32 33 33 33 33 32 32 32 31 31 30 28 27 26 24 24 23 22 21 20 19 18 17 16 15 14 13 12 10 8 7 6 5 6
47 46 44 45 48 51 54 53 53 53 54 54 55 55 53 50 46 43 42 41 36 29 23 21 19 18 15 13 11 10 16 26 34 37 34 24 18 19 27 29 30 30 28 20 12 7 9 17 24 28 30 31 32 33 33 34 34 33 33 32 31 30 29 27 26 25 24 23 23 22 21 21 20 18 17 16 15 14 13 11 10 8 7 7 7 7
41 41 40 42 45 48 49 50 50 50 51 52 53 53 51 48 46 45 45 43 38 32 26 23 22 22 21 11 6 4 7 22 34 38 35 26 20 22 29 28 28 31 31 22 9 1 3 8 16 25 30 32 32 33 33 34 34 34 33 32 30 28 27 26 25 24 23 23 23 22 22 21 20 18 17 16 15 14 13 11 11 10 9 9 10 11
38 38 38 40 42 44 45 45 46 46 47 49 50 49 48 46 45 44 45 45 42 37 31 27 24 24 25 18 12 8 8 22 35 40 37 28 23 25 31 28 27 29 31 26 18 11 7 5 10 20 28 31 32 34 34 34 34 34 33 32 31 29 27 27 26 25 24 24 24 23 22 21 19 18 17 16 16 15 14 13 13 13 12 13 14 14
36 37 37 39 40 41 41 42 43 44 45 46 46 46 46 45 44 45 46 47 45 41 36 31 27 25 25 24 19 15 16 28 38 44 41 31 25 24 29 28 28 28 28 24 22 19 14 12 13 18 24 29 32 33 34 35 35 34 34 34 33 31 30 29 28 27 27 26 25 24 23 21 19 18 18 17 17 16 16 16 16 16 15 16 16 16
35 35 35 37 38 38 39 40 41 42 43 44 45 45 44 44 44 45 46 47 46 44 41 38 33 29 25 21 17 15 18 30 42 47 44 36 28 25 28 28 28 28 26 20 17 16 16 18 18 18 19 23 28 31 33 34 34 34 35 35 34 33 32 30 29 29 28 27 26 24 23 21 19 19 19 18 18 18 18 17 17 17 17 16 16 16
32 33 33 34 35 35 36 38 39 41 42 42 43 44 44 43 43 44 45 45 45 44 44 44 42 39 33 26 19 16 19 30 42 48 46 41 33 29 28 28 29 29 26 21 17 15 14 18 21 21 18 18 21 26 29 32 33 34 34 34 34 34 33 31 30 29 28 27 25 24 22 21 20 20 20 19 19 19 18 18 17 17 16 16 16 16
28 28 30 32 32 33 34 35 37 39 40 41 42 43 43 43 43 43 43 43 43 43 42 43 44 44 43 39 33 28 28 35 43 48 48 45 39 33 28 28 31 32 28 24 21 18 17 18 21 22 21 17 15 17 23 28 31 32 33 33 33 33 32 31 30 29 28 26 25 23 22 21 20 20 20 20 19 19 18 17 16 15 15 15 15 15
25 25 27 30 31 32 32 34 35 37 38 39 40 40 40 41 41 42 42 42 42 42 41 41 41 42 43 44 43 41 39 40 44 48 50 47 43 37 32 30 34 36 32 27 24 23 22 20 20 20 20 17 14 14 18 24 27 28 29 30 31 31 30 30 29 28 27 26 25 23 22 21 20 20 20 19 18 17 16 15 15 14 14 14 14 14
23 23 25 28 30 31 31 32 34 36 38 38 38 38 38 39 40 40 41 41 42 41 40 39 38 38 38 39 40 41 41 41 44 49 51 49 45 40 36 33 35 37 36 33 31 29 27 22 16 13 14 15 16 18 22 24 25 25 25 27 28 29 28 28 27 26 25 25 24 22 21 20 20 19 19 18 17 16 15 14 14 14 14 13 13 12
21 22 24 27 29 31 31 32 34 36 38 39 39 38 38 38 39 39 39 40 40 40 39 38 36 34 34 33 34 35 37 40 45 49 52 50 46 42 39 36 35 36 36 35 34 33 31 27 22 18 15 14 16 19 23 25 25 25 25 25 24 24 24 24 24 23 23 22 22 21 20 19 18 17 16 16 15 14 13 13 13 13 13 12 11 11
21 21 23 26 28 31 33 34 36 39 40 40 40 39 39 38 37 37 37 37 37 37 37 36 34 32 31 30 30 32 35 39 44 49 51 49 45 42 40 38 37 36 34 33 32 32 30 28 26 25 23 19 18 19 21 22 24 26 26 22 19 18 20 20 20 20 20 20 19 18 18 17 16 16 15 14 13 13 13 13 12 12 11 10 10 9
21 21 22 24 26 30 33 37 39 41 42 41 40 39 38 38 36 35 35 34 34 34 34 34 33 31 29 29 30 32 35 39 43 46 47 45 43 40 40 40 39 38 35 32 31 31 30 27 25 23 23 23 23 22 22 22 24 27 27 23 20 20 20 19 18 18 18 17 17 17 16 16 15 14 14 13 13 12 12 11 11 11 10 9 9 9
22 21 22 24 26 29 32 36 39 41 42 41 40 38 38 38 38 37 35 34 33 33 33 33 33 32 30 30 30 32 35 37 39 41 41 40 39 38 39 39 40 39 37 34 31 29 29 28 26 25 25 25 24 22 20 21 23 25 25 24 25 24 21 18 17 17 16 16 16 16 15 15 14 14 13 12 12 11 11 11 10 10 9 9 9 9
22 22 24 26 29 31 34 36 37 37 38 38 37 37 37 38 38 38 36 34 32 32 33 33 34 33 31 29 28 29 31 33 35 36 36 35 35 36 38 39 40 39 38 34 30 27 27 28 28 28 29 30 27 24 21 21 22 22 24 26 26 23 17 17 18 18 17 17 16 16 15 14 14 13 12 12 11 11 10 10 10 9 9 9 9 9
22 23 25 28 30 32 33 33 33 33 33 32 32 33 35 36 37 37 35 32 31 31 31 32 33 32 29 27 26 27 28 30 31 32 32 33 34 35 37 38 38 38 38 36 32 29 27 26 26 28 30 31 29 26 23 22 22 22 23 25 26 24 20 21 22 22 19 18 17 16 15 14 14 13 12 11 11 10 10 9 9 9 9 8 8 9
24 24 26 27 29 29 28 28 29 30 31 31 31 31 32 34 35 35 33 32 31 30 31 32 30 26 22 22 24 26 27 28 29 30 31 32 33 35 36 36 36 36 35 35 34 33 30 27 26 27 29 30 28 26 24 23 22 22 23 24 24 23 23 23 24 24 22 20 18 17 16 15 14 13 13 12 11 10 9 9 8 8 8 8 8 8
23 23 24 25 25 25 24 25 26 27 28 27 28 30 31 32 33 33 33 33 31 29 30 31 28 24 20 21 22 24 24 26 28 29 30 31 33 34 35 35 34 34 33 33 33 33 33 32 31 30 29 27 25 24 24 25 24 23 23 23 22 21 20 21 22 22 22 21 19 18 17 16 15 14 14 14 12 11 10 9 8 8 8 8 8 8
22 22 22 23 23 22 23 24 25 25 24 24 25 27 29 30 31 32 32 33 31 29 28 28 27 25 23 23 23 23 23 23 25 28 30 31 32 33 33 33 33 32 32 31 30 30 31 33 34 34 31 26 21 19 22 24 25 25 25 25 24 23 22 22 21 21 20 20 19 19 18 17 16 16 15 15 14 12 11 10 9 8 8 8 8 8
22 22 22 22 22 21 21 22 23 24 24 23 24 25 26 29 31 31 31 31 31 29 26 25 24 24 23 23 24 25 25 25 24 26 30 32 33 33 33 32 32 31 30 30 30 30 30 30 30 31 31 28 23 20 21 23 24 26 27 27 26 25 24 23 22 20 19 19 19 18 18 17 17 17 17 16 14 13 12 10 9 9 8 8 7 7
23 22 22 22 22 21 21 22 23 24 25 24 23 23 24 27 29 30 29 30 29 28 26 25 24 23 22 21 23 25 26 26 25 26 29 32 34 35 35 34 34 33 32 31 31 30 29 27 25 25 25 27 27 25 24 24 25 25 26 26 26 26 26 24 22 20 19 19 18 18 17 17 17 17 17 17 15 14 12 11 10 9 8 8 7 7
21 21 22 23 23 22 23 23 23 24 25 25 24 23 23 24 25 27 28 28 28 26 26 26 26 25 23 22 23 25 26 26 25 25 26 30 34 35 35 35 35 34 32 31 29 27 25 23 21 19 19 22 25 26 27 26 26 26 25 24 25 26 26 24 22 21 20 19 18 18 17 17 17 16 16 17 16 14 12 11 10 9 8 8 7 6
19 19 20 21 22 22 23 23 23 23 25 26 26 25 24 23 23 24 25 25 25 25 25 25 26 25 24 25 25 26 26 27 26 25 25 29 32 33 33 34 33 31 27 23 20 18 17 14 13 14 15 16 19 23 26 27 27 25 23 23 24 25 25 24 23 21 20 19 18 18 18 18 18 17 17 17 17 16 14 12 10 9 8 7 7 6
Wind_Direction
193 197 199 200 200 201 205 208 207 205 205 207 208 208 208 208 209 211 212 213 214 216 216 214 213 211 210 211 212 212 211 210 209 208 208 209 211 212 211 209 208 208 209 212 214 216 217 219 220 222 224 225 225 227 229 233 238 242 242 235 226 218 212 202 193 190 194 192 172 157 159 167 171 172 172 175 176 174 168 163 160 160 161 160 156 153
187 190 193 197 199 201 204 207 207 206 205 206 207 206 205 205 206 207 209 211 213 215 214 213 211 210 209 210 210 210 209 208 207 206 206 208 209 209 209 207 206 206 208 210 212 214 216 217 218 220 221 222 223 226 230 235 239 238 231 218 208 201 196 187 181 178 178 173 160 155 161 170 174 176 179 183 182 175 163 158 158 161 164 165 164 161
182 182 186 190 194 197 201 203 205 205 206 206 206 205 203 202 203 204 205 207 210 212 212 211 209 208 207 207 208 208 207 206 205 204 205 206 207 207 207 206 205 205 206 208 210 212 213 215 215 217 218 220 222 226 231 235 235 228 217 206 198 191 186 181 177 174 172 171 167 163 165 169 171 172 176 180 178 169 160 157 158 160 163 166 166 163
181 180 183 186 190 194 198 200 201 202 204 204 204 202 200 199 200 200 201 202 204 206 207 207 206 204 204 204 205 205 204 204 204 203 203 204 205 205 206 205 204 204 205 207 208 210 211 212 213 214 216 219 222 227 230 230 224 214 205 197 191 188 187 185 180 175 171 172 172 171 170 169 168 166 167 168 166 162 158 158 158 159 161 163 162 159
186 185 184 183 186 191 197 198 197 197 198 199 199 197 196 196 196 196 196 197 198 199 200 201 201 201 201 201 201 201 202 202 202 202 202 202 203 204 204 204 203 203 204 206 207 208 209 210 211 213 215 218 222 225 224 219 210 202 197 193 191 191 192 190 185 177 171 169 171 174 175 175 171 165 160 159 158 158 158 158 158 159 160 161 162 162
189 188 185 182 183 187 192 194 193 192 191 191 191 191 190 191 191 190 189 190 192 193 193 194 196 197 197 197 197 197 198 200 201 201 200 201 202 203 203 203 203 203 204 205 206 207 207 208 210 212 214 217 219 218 213 205 199 196 195 194 193 193 195 194 189 181 174 170 171 175 177 179 176 171 164 160 158 158 159 160 162 163 164 164 166 168
188 187 184 181 182 184 187 189 189 188 185 183 182 183 184 184 184 183 183 185 186 187 187 188 190 191 192 192 192 193 194 197 199 199 199 199 200 201 202 202 202 203 204 204 205 205 206 207 209 211 212 213 211 208 202 197 195 195 195 195 195 195 196 194 191 186 180 176 176 177 179 180 179 176 171 167 164 161 161 164 166 168 169 170 172 173
183 183 182 180 180 181 181 184 187 187 185 181 177 175 175 175 176 176 178 180 182 182 182 182 183 184 185 187 187 188 190 192 194 195 196 197 198 200 201 202 202 203 204 204 204 204 205 206 207 208 208 206 203 199 196 195 195 194 194 195 196 196 195 193 191 188 185 183 182 181 181 181 180 178 175 172 169 166 165 167 168 170 171 173 173 173
181 181 181 181 179 175 176 181 186 187 186 182 178 174 170 169 169 170 172 174 176 178 178 177 177 178 180 183 185 186 187 189 190 191 193 194 196 198 200 202 203 204 204 204 203 203 204 204 205 204 202 199 197 196 196 196 195 193 191 193 194 193 191 189 188 186 186 185 185 185 184 183 181 180 178 176 174 172 172 172 172 171 170 171 171 170
182 181 181 183 181 178 175 179 185 186 186 184 182 179 175 169 165 164 165 167 171 174 176 176 175 174 176 180 183 185 186 187 189 190 192 194 197 199 201 203 204 204 204 203 203 202 202 202 202 201 199 197 196 196 197 197 194 191 189 190 191 190 187 185 184 184 184 184 186 187 188 187 186 184 183 181 180 179 178 178 176 172 169 167 166 164
181 181 181 181 182 181 179 180 183 184 184 183 182 182 180 175 170 165 162 166 169 171 173 175 176 175 174 177 182 185 186 186 186 188 191 194 196 199 201 203 204 204 204 203 202 202 201 201 201 199 198 197 197 198 198 197 194 191 190 191 191 189 186 184 183 182 183 183 185 188 190 191 190 190 190 189 188 187 186 185 182 178 172 167 163 161
179 180 181 181 181 181 179 179 180 180 180 179 179 183 186 183 177 172 168 168 169 170 171 174 176 177 177 178 181 185 187 187 186 187 188 190 193 195 198 200 201 202 202 202 202 201 200 200 201 200 198 198 199 199 198 196 194 193 193 195 196 194 191 188 186 184 184 184 186 188 191 192 193 194 195 196 197 197 197 196 194 190 185 179 173 170
179 179 179 178 178 178 176 173 173 175 178 179 180 184 188 186 182 177 173 171 171 171 171 171 173 176 180 183 185 187 188 188 189 189 189 190 191 194 195 197 198 199 200 200 200 199 198 198 199 200 199 199 199 199 197 196 194 194 195 198 200 201 199 195 190 188 187 187 188 189 191 193 193 194 195 197 199 202 203 204 204 204 204 204 201 197
177 176 175 175 177 178 177 173 173 177 183 186 188 188 186 183 180 176 172 170 170 171 170 168 168 172 177 182 186 189 189 189 189 190 190 192 194 196 197 197 198 200 200 198 197 197 197 195 197 199 200 199 198 198 196 195 195 195 197 199 202 203 201 197 192 189 189 189 190 191 192 193 193 193 193 195 197 200 203 205 207 211 214 218 220 221
175 173 172 175 179 181 181 180 181 184 188 190 190 188 183 180 177 174 168 164 165 166 165 163 164 168 173 179 184 188 190 189 188 188 189 192 196 198 199 198 198 199 200 197 196 197 197 194 195 198 200 200 199 197 196 195 195 196 197 198 199 200 199 195 191 190 190 191 192 193 194 194 194 193 192 193 195 197 200 203 206 210 215 220 225 228
177 175 177 177 181 184 184 184 185 187 189 189 188 183 178 177 177 174 169 164 162 162 160 156 155 163 173 180 183 186 188 187 187 187 187 190 194 198 199 198 196 196 197 196 195 195 195 194 195 197 200 201 201 199 197 196 195 196 196 196 196 195 194 191 190 190 190 192 193 194 195 196 195 194 192 192 193 195 197 200 204 208 214 219 224 228
180 181 183 182 183 185 186 186 186 187 187 186 186 183 181 180 179 176 171 166 164 164 166 164 159 155 172 183 185 185 186 185 186 187 187 188 191 196 198 198 195 194 196 195 195 195 194 193 194 197 200 202 203 202 199 197 196 196 195 194 192 191 190 189 189 190 191 193 193 194 195 196 196 195 194 193 193 193 194 196 200 205 211 217 222 227
184 185 185 185 186 186 185 185 187 188 186 185 185 185 184 183 180 176 172 168 167 169 173 173 173 169 161 181 188 189 187 184 184 184 185 186 190 193 195 197 198 197 196 195 196 196 195 194 195 197 200 203 204 204 201 198 196 195 194 192 190 188 188 188 190 192 193 194 194 195 196 196 195 195 194 194 193 192 192 193 196 201 207 213 218 222
188 188 187 188 188 186 184 186 187 186 185 185 184 183 182 182 181 177 174 172 172 174 175 177 179 180 179 180 187 189 187 186 184 182 181 183 187 189 191 193 196 197 197 196 196 197 197 196 195 197 200 203 204 204 202 198 195 194 194 191 189 187 187 189 190 192 194 194 195 196 197 197 196 195 195 195 194 193 192 193 195 199 204 208 212 215
193 192 192 191 188 184 184 188 189 188 187 185 182 180 180 180 179 178 177 176 177 177 176 178 180 182 181 181 185 188 188 186 183 180 179 181 184 187 187 190 193 195 196 198 198 198 197 196 196 197 200 203 204 204 201 197 194 194 193 191 189 188 188 189 191 193 194 194 195 197 199 199 197 196 195 196 196 195 194 195 197 200 203 205 206 206
197 197 197 192 187 185 188 191 191 190 188 184 181 179 180 179 179 179 179 178 178 178 178 181 184 185 182 180 183 187 188 186 182 178 176 177 182 186 187 189 191 193 195 198 199 198 197 196 195 197 200 203 204 202 199 196 193 193 193 192 190 188 189 190 191 192 193 194 196 198 201 201 198 195 195 195 195 194 194 196 198 200 202 202 200 197
202 201 198 193 190 189 190 191 190 189 186 183 180 180 181 179 179 181 181 179 178 178 181 185 186 184 183 182 186 189 189 187 184 179 172 169 179 186 187 188 190 192 194 197 198 198 196 195 195 197 200 202 202 200 197 194 192 192 192 192 191 190 190 191 191 191 192 194 196 199 201 200 197 194 193 192 192 192 193 195 198 200 200 198 194 190
205 204 198 195 194 193 192 190 189 187 186 184 184 184 184 182 181 182 182 182 181 180 179 178 176 175 178 182 185 187 189 189 187 182 171 167 180 188 187 187 188 190 192 195 196 196 196 195 195 197 200 202 202 199 196 193 191 191 192 192 191 191 191 191 191 191 192 194 196 198 198 196 193 191 190 190 190 191 193 195 198 199 198 195 192 189
206 206 199 196 196 195 194 190 188 187 186 187 187 187 186 185 185 184 184 183 180 176 171 165 159 156 163 171 177 181 186 188 187 182 174 171 177 183 184 184 184 185 189 192 194 194 194 194 194 196 199 201 201 199 196 193 191 190 191 192 192 191 192 192 191 191 192 194 196 196 194 191 189 188 188 189 190 192 194 197 198 198 197 194 192 191
205 204 201 198 197 197 195 192 189 188 187 187 187 187 186 185 184 182 180 177 172 166 159 151 143 139 146 158 168 177 184 186 185 182 176 169 168 175 181 181 180 179 181 186 189 191 192 193 194 195 196 199 201 200 197 194 191 191 191 192 192 192 192 192 191 192 192 193 193 192 190 188 187 187 188 189 191 194 198 199 199 198 196 194 194 196
205 205 203 201 199 198 198 196 193 190 189 188 187 186 183 179 174 169 164 163 160 156 151 146 142 141 145 154 166 177 181 182 183 183 179 168 158 164 175 178 178 174 171 175 181 186 189 191 193 194 194 196 199 201 199 195 192 191 191 192 192 192 191 191 191 191 192 192 190 189 187 186 186 186 188 191 195 200 202 203 201 199 198 198 201 206
206 205 205 203 201 199 198 197 195 193 190 189 187 185 181 174 166 160 158 161 161 158 155 153 145 140 145 156 169 178 180 180 181 182 181 171 159 158 169 174 174 168 160 161 168 177 182 185 188 190 191 192 195 198 198 196 194 192 192 191 191 191 190 190 190 190 190 190 188 187 186 185 185 187 190 195 201 205 207 205 203 202 202 206 211 219
207 205 206 204 202 199 198 198 196 194 192 190 188 186 182 174 167 165 169 169 166 163 162 158 148 142 149 167 174 177 178 180 181 181 181 172 161 157 166 170 169 163 153 149 156 166 173 176 180 184 187 188 190 192 195 195 193 192 190 190 189 189 188 188 189 189 189 188 187 187 186 185 187 190 194 201 206 210 210 209 208 208 212 220 232 244
208 206 206 204 201 199 198 197 196 194 192 190 189 187 184 179 175 174 174 170 167 165 166 165 162 159 158 159 163 170 178 182 182 181 179 169 159 158 164 165 164 161 153 144 143 150 159 165 170 175 179 181 183 185 187 188 188 187 186 186 186 187 187 187 187 187 187 187 187 187 186 187 189 194 199 205 210 213 214 215 217 223 232 246 261 272
206 204 203 201 197 195 194 194 193 192 190 189 188 187 186 184 182 179 174 170 168 167 167 165 163 159 153 146 145 163 183 187 184 179 176 167 158 157 161 162 163 162 157 146 132 122 139 154 160 164 168 172 174 176 178 180 180 179 179 180 182 184 185 186 186 186 186 186 187 187 188 190 194 199 204 210 214 217 220 223 229 238 248 258 265 269
199 195 193 191 189 188 188 189 188 187 187 187 187 186 185 184 182 179 174 171 170 169 166 164 162 159 155 147 143 165 191 192 185 179 177 169 161 160 162 163 165 167 165 159 151 102 133 151 153 156 160 163 166 169 171 173 174 173 172 173 174 177 180 182 183 184 184 186 187 189 191 195 199 204 210 215 219 222 226 230 234 240 245 249 251 252
190 187 184 182 181 181 181 182 182 182 182 182 183 183 183 182 181 178 175 174 173 171 168 165 163 163 164 169 173 174 180 187 183 179 177 170 163 162 165 165 167 169 170 167 165 161 149 159 153 150 152 156 159 163 166 169 170 170 170 169 169 171 175 178 180 181 182 185 188 191 195 199 203 209 215 220 224 227 229 232 233 235 238 240 241 243
183 180 178 176 175 175 176 177 177 177 177 178 179 180 180 180 180 180 178 178 177 174 171 167 165 166 171 175 176 174 174 180 181 180 178 172 164 162 166 167 168 170 171 170 168 163 156 157 154 149 148 150 154 158 162 165 168 170 171 170 170 171 174 178 181 182 184 187 190 194 197 202 207 213 219 223 226 228 229 230 231 233 235 237 240 242
176 173 171 170 170 171 172 173 174 174 175 176 177 178 178 179 180 180 180 180 180 179 178 175 172 170 171 173 172 167 168 177 180 180 179 175 168 163 167 168 168 169 169 168 162 153 148 150 150 148 145 146 150 154 157 161 165 169 173 174 174 174 177 181 183 185 188 190 193 195 199 203 209 215 220 223 225 227 228 229 231 234 237 240 243 245
169 167 166 166 166 167 169 170 171 172 173 175 176 177 177 179 180 180 181 181 182 183 185 185 184 181 178 175 171 165 166 177 180 180 180 178 173 167 168 171 172 171 169 165 157 147 143 148 151 151 147 143 144 149 154 159 163 168 172 176 177 177 180 183 185 187 190 192 194 197 200 205 210 215 219 221 224 226 228 230 234 237 240 243 245 247
162 162 162 163 164 165 166 167 168 169 171 173 175 176 177 178 180 181 181 182 183 185 187 189 190 190 189 186 182 178 176 179 181 181 182 182 179 173 170 174 176 174 171 167 160 153 151 153 154 153 150 147 144 147 153 158 162 165 169 173 176 178 181 184 187 189 190 192 194 197 201 205 210 214 218 221 224 226 229 232 235 238 241 243 245 246
158 160 161 163 163 164 164 165 166 167 169 171 173 175 176 177 178 179 180 181 182 183 184 186 188 190 192 193 192 190 189 186 183 183 184 185 184 179 174 177 178 176 174 170 164 158 154 153 155 155 155 155 154 153 154 155 158 161 164 169 172 175 179 183 187 190 191 193 195 198 202 206 211 215 219 222 224 227 229 232 234 236 238 240 242 244
158 160 161 163 163 163 162 162 163 165 166 168 169 171 172 172 173 175 176 177 179 180 180 181 183 184 187 190 192 194 195 190 185 184 185 186 185 183 178 176 177 178 177 173 167 161 157 155 155 159 162 161 158 156 156 155 155 156 160 166 171 174 177 181 185 189 192 194 196 200 204 208 212 216 219 221 223 225 227 229 231 232 234 235 237 239
159 160 161 163 162 162 161 161 161 163 164 165 166 166 166 166 167 168 169 171 172 174 175 175 176 177 180 183 187 190 190 187 184 183 184 184 185 183 179 175 174 177 177 174 168 164 161 161 162 164 164 158 155 156 158 157 156 156 158 162 166 172 177 181 185 188 192 195 198 201 205 209 213 215 217 219 220 221 222 223 226 228 229 229 230 231
159 160 161 163 162 161 161 160 161 161 161 161 162 161 160 159 158 158 160 161 163 165 167 168 167 168 169 172 175 178 180 180 180 181 182 182 183 182 179 174 172 172 173 170 166 164 162 163 164 164 162 157 154 155 157 158 159 159 158 156 157 164 173 179 183 188 193 196 200 203 205 209 211 212 214 215 215 216 217 218 221 224 225 221 217 214
157 157 158 158 158 159 159 159 159 159 158 157 155 154 153 151 149 147 147 148 149 151 154 155 154 152 153 155 158 163 167 171 174 177 179 180 180 179 177 173 170 169 167 165 164 163 162 162 161 160 158 156 155 156 157 160 162 162 161 158 159 164 169 173 178 184 190 194 198 202 204 206 207 208 208 209 209 210 213 215 217 220 221 218 212 206
155 152 151 150 150 151 153 154 155 155 155 154 151 149 150 149 147 144 140 138 137 139 143 143 140 135 132 134 141 149 155 161 167 172 175 176 177 176 174 171 169 167 166 163 161 161 162 162 160 158 157 156 155 154 156 159 163 165 165 163 162 162 163 169 176 181 183 188 193 198 200 201 202 202 202 201 202 203 207 210 212 213 213 210 208 206
150 147 145 146 147 148 148 148 148 149 150 149 148 148 150 151 150 146 142 138 136 136 138 139 138 132 125 123 127 135 144 153 160 165 169 172 173 173 172 171 169 169 167 162 158 158 160 161 161 160 161 160 157 154 154 156 160 164 167 167 163 158 154 167 175 179 181 184 188 192 194 195 195 194 193 192 193 195 197 200 202 204 205 205 204 203
139 138 140 142 143 144 144 144 145 146 147 146 146 147 148 150 149 147 143 140 138 137 136 136 135 131 124 121 121 124 132 142 151 157 162 165 169 171 171 170 169 169 168 164 158 155 154 155 157 160 162 162 159 155 154 155 158 161 166 170 170 167 164 168 173 176 179 182 184 186 188 187 185 183 182 181 182 184 186 189 192 194 197 199 200 200
132 133 135 137 139 140 141 143 144 145 145 145 145 145 146 148 148 146 143 140 138 137 137 136 133 128 123 122 122 123 124 131 139 146 152 158 163 166 167 166 166 167 167 166 163 160 155 151 152 155 159 159 158 156 155 155 157 160 164 170 174 175 174 173 174 175 175 177 178 179 179 179 177 174 170 168 167 167 169 172 177 181 186 190 193 195
129 130 133 135 137 139 141 142 142 141 141 140 142 144 145 147 147 146 144 142 140 140 141 140 138 134 132 132 131 128 124 123 127 134 141 148 154 159 161 162 163 163 162 162 163 164 162 159 155 154 153 152 151 153 156 157 157 157 160 166 169 169 167 168 171 174 175 173 172 171 172 171 170 166 160 156 152 150 150 152 155 161 167 174 180 183
130 132 134 135 136 137 139 139 139 137 135 136 138 141 144 145 145 144 143 143 142 142 142 141 139 138 138 139 138 135 131 126 125 126 132 138 144 149 153 155 158 159 158 156 156 157 159 160 160 158 153 147 141 143 151 156 157 156 158 161 162 161 158 161 166 171 173 171 169 167 167 167 165 163 158 152 146 141 138 138 140 144 150 156 162 167
134 134 135 135 134 134 135 137 137 136 135 135 137 139 141 143 143 142 142 143 143 142 140 138 137 136 137 139 140 138 136 133 129 127 128 132 136 141 144 145 147 148 148 148 146 145 146 150 154 158 158 154 147 143 146 151 154 156 157 158 158 157 155 159 162 165 167 167 166 166 166 166 164 161 157 151 145 139 134 133 133 134 138 142 147 152
138 138 138 137 136 136 138 140 139 138 137 135 135 136 138 141 143 143 143 144 143 142 141 140 138 136 135 136 137 136 135 133 130 129 129 130 132 134 136 136 136 134 133 132 133 133 134 135 140 147 155 158 154 149 147 149 152 154 155 157 156 155 155 156 159 160 162 162 163 163 164 166 167 165 160 151 146 142 138 135 133 133 134 134 136 139
136 138 139 140 140 141 143 143 141 138 137 135 134 134 135 137 139 141 142 143 143 143 142 141 140 138 137 136 136 135 134 133 131 130 130 132 133 133 133 133 132 128 124 121 121 120 118 115 116 124 137 150 153 151 148 149 150 152 153 155 156 156 154 154 155 156 158 159 159 159 161 163 165 164 160 153 147 144 141 139 136 135 134 134 134 134
130 134 137 139 141 142 143 143 141 138 136 135 134 133 132 133 134 135 137 138 139 140 140 139 138 138 137 137 137 137 136 136 135 135 135 135 136 136 135 135 134 131 127 123 121 119 112 102 94 94 105 129 146 153 153 151 149 149 149 153 156 157 154 152 152 153 155 155 156 157 159 160 161 160 158 151 148 148 147 146 143 140 138 139 140 143